| time (UTC) | temp F | wind direction | speed knots | gust knots | rain 1hr in | rain 24hr in | rain mn in | humidity % | barometer mb |
| 20260504081522 | 49 | 281 | 3.5 | 9.6 | 0.00 | 0.00 | 0.00 | 77 | 1011.5 |
| 20260504060104 | 49 | 274 | 5.2 | 12.2 | 0.00 | 0.02 | 0.00 | 77 | 1011.2 |
| 20260504050021 | 49 | 260 | 7.0 | 13.9 | 0.00 | 0.02 | 0.00 | 75 | 1011.2 |
| 20260504044528 | 49 | 279 | 7.8 | 13.9 | 0.00 | 0.02 | 0.00 | 73 | 1011.1 |
| 20260504043028 | 50 | 279 | 6.1 | 13.9 | 0.00 | 0.02 | 0.00 | 73 | 1011.3 |
| 20260504041509 | 49 | 262 | 5.2 | 12.2 | 0.00 | 0.02 | 0.00 | 74 | 1011.2 |
| 20260504040043 | 49 | 295 | 5.2 | 11.3 | 0.00 | 0.06 | 0.02 | 71 | 1011.0 |
| 20260504034514 | 49 | 270 | 4.3 | 10.4 | 0.00 | 0.06 | 0.02 | 70 | 1010.8 |
| 20260504033002 | 49 | 273 | 5.2 | 8.7 | 0.00 | 0.06 | 0.02 | 66 | 1010.7 |
| 20260504031522 | 49 | 260 | 4.3 | 7.8 | 0.00 | 0.06 | 0.02 | 62 | 1010.5 |
| 20260504024523 | 49 | 279 | 5.2 | 9.6 | 0.00 | 0.12 | 0.02 | 61 | 1010.6 |
| 20260504023039 | 49 | 277 | 4.3 | 7.8 | 0.00 | 0.12 | 0.02 | 61 | 1010.7 |
| 20260504021539 | 49 | 277 | 4.3 | 8.7 | 0.00 | 0.12 | 0.02 | 61 | 1010.6 |
| 20260504020033 | 49 | 281 | 3.5 | 6.1 | 0.00 | 0.22 | 0.02 | 59 | 1010.6 |
| 20260504014535 | 49 | 283 | 3.5 | 7.0 | 0.00 | 0.22 | 0.02 | 58 | 1010.6 |
| 20260504013046 | 49 | 280 | 3.5 | 6.1 | 0.00 | 0.22 | 0.02 | 59 | 1010.4 |
| 20260504011548 | 49 | 287 | 2.6 | 5.2 | 0.00 | 0.22 | 0.02 | 53 | 1010.3 |
| 20260504010051 | 50 | 334 | 0.9 | 2.6 | 0.00 | 0.32 | 0.02 | 54 | 1010.0 |
| 20260504004554 | 50 | 335 | 1.7 | 4.3 | 0.00 | 0.32 | 0.02 | 51 | 1009.9 |
| 20260504003056 | 51 | 340 | 3.5 | 7.8 | 0.00 | 0.32 | 0.02 | 47 | 1009.6 |
| 20260504001608 | 51 | 307 | 3.5 | 7.0 | 0.00 | 0.32 | 0.02 | 48 | 1009.4 |
| 20260504000010 | 52 | 344 | 2.6 | 11.3 | 0.00 | 0.36 | 0.02 | 45 | 1009.2 |
| 20260503234528 | 52 | 1 | 6.1 | 13.0 | 0.00 | 0.36 | 0.02 | 42 | 1008.9 |
| 20260503233043 | 53 | 328 | 6.1 | 13.9 | 0.00 | 0.36 | 0.02 | 42 | 1008.5 |
| 20260503231535 | 53 | 336 | 5.2 | 16.5 | 0.00 | 0.36 | 0.02 | 42 | 1008.2 |
| 20260503230022 | 53 | 342 | 5.2 | 17.4 | 0.00 | 0.36 | 0.02 | 44 | 1008.0 |
| 20260503224520 | 54 | 331 | 8.7 | 19.1 | 0.00 | 0.36 | 0.02 | 41 | 1007.9 |
| 20260503223012 | 54 | 310 | 3.5 | 13.9 | 0.00 | 0.36 | 0.02 | 47 | 1007.7 |
| 20260503221513 | 54 | 351 | 6.1 | 16.5 | 0.00 | 0.36 | 0.02 | 43 | 1007.4 |
| 20260503220106 | 54 | 358 | 6.1 | 17.4 | 0.00 | 0.36 | 0.02 | 41 | 1007.0 |
| 20260503214605 | 54 | 345 | 7.0 | 16.5 | 0.00 | 0.36 | 0.02 | 42 | 1006.9 |
| 20260503213103 | 54 | 4 | 6.1 | 19.1 | 0.00 | 0.36 | 0.02 | 43 | 1006.7 |
| 20260503211553 | 54 | 16 | 7.0 | 14.8 | 0.00 | 0.36 | 0.02 | 42 | 1006.6 |
| 20260503210057 | 54 | 360 | 5.2 | 15.6 | 0.00 | 0.36 | 0.02 | 43 | 1006.3 |
| 20260503204502 | 55 | 338 | 5.2 | 16.5 | 0.00 | 0.36 | 0.02 | 43 | 1006.0 |
| 20260503203020 | 53 | 341 | 5.2 | 11.3 | 0.00 | 0.36 | 0.02 | 49 | 1006.0 |
| 20260503201519 | 53 | 358 | 7.0 | 13.9 | 0.00 | 0.36 | 0.02 | 51 | 1006.0 |
| 20260503200017 | 54 | 24 | 5.2 | 16.5 | 0.00 | 0.36 | 0.02 | 49 | 1005.8 |
| 20260503194501 | 54 | 352 | 5.2 | 16.5 | 0.00 | 0.36 | 0.02 | 47 | 1005.9 |
| 20260503193010 | 54 | 349 | 4.3 | 15.6 | 0.00 | 0.36 | 0.02 | 48 | 1005.8 |
| 20260503191515 | 54 | 343 | 7.8 | 21.7 | 0.00 | 0.36 | 0.02 | 47 | 1005.8 |
| 20260503190004 | 54 | 6 | 8.7 | 15.6 | 0.00 | 0.36 | 0.02 | 49 | 1006.0 |
| 20260503184506 | 54 | 360 | 5.2 | 13.0 | 0.00 | 0.36 | 0.02 | 52 | 1005.9 |
| 20260503183005 | 53 | 21 | 5.2 | 14.8 | 0.00 | 0.36 | 0.02 | 54 | 1006.0 |
| 20260503181604 | 51 | 359 | 10.4 | 17.4 | 0.00 | 0.36 | 0.02 | 54 | 1006.1 |
| 20260503180057 | 51 | 7 | 7.0 | 18.2 | 0.00 | 0.36 | 0.02 | 56 | 1006.0 |
| 20260503174533 | 52 | 14 | 7.8 | 16.5 | 0.00 | 0.36 | 0.02 | 57 | 1006.1 |
| 20260503173013 | 52 | 2 | 8.7 | 20.0 | 0.00 | 0.36 | 0.02 | 59 | 1006.0 |
| 20260503171519 | 52 | 343 | 9.6 | 24.3 | 0.00 | 0.36 | 0.02 | 62 | 1005.8 |